Location: Prague
(50.0830°N, 14.4670°E)
Time: 10:28:21
(UTC+01:00)

Oscar 11 - Pass Details

Date: 30 November 2021
Orbit: 611 x 625 km, 97.6° (Epoch: 26 January)

Event Time Altitude Azimuth Distance (km) Brightness Sun altitude
Rises 06:23:09 0° 6° (N) 2,923 10.4 -11.5°
Reaches altitude 10° 06:25:29 10° 358° (N) 2,010 9.5 -11.2°
Maximum altitude 06:29:27 35° 293° (WNW) 1,015 7.6 -10.6°
Drops below altitude 10° 06:33:23 10° 228° (SW) 1,990 9.4 -10.0°
Sets 06:35:42 0° 219° (SW) 2,890 10.3 -9.6°
